TimeMDT,TemperatureF,Dew PointF,Humidity,Sea Level PressureIn,VisibilityMPH,Wind Direction,Wind SpeedMPH,Gust SpeedMPH,PrecipitationIn,Events,Conditions,WindDirDegrees,DateUTC
12:15 AM,32.2,26.6,80,30.14,10.0,WSW,9.2,-,N/A,,Overcast,240,2013-03-12 06:15:00
12:35 AM,32.0,26.6,80,30.14,10.0,WSW,8.1,-,N/A,,Overcast,240,2013-03-12 06:35:00
12:55 AM,31.5,29.1,91,30.14,10.0,West,5.8,-,N/A,,Overcast,270,2013-03-12 06:55:00
1:15 AM,31.3,29.8,94,30.14,5.0,SW,3.5,-,N/A,,Overcast,230,2013-03-12 07:15:00
1:35 AM,30.9,28.4,90,30.14,10.0,Calm,Calm,-,N/A,,Overcast,0,2013-03-12 07:35:00
1:55 AM,30.7,28.8,92,30.14,3.0,Calm,Calm,-,N/A,,Overcast,0,2013-03-12 07:55:00
2:15 AM,30.2,28.8,94,30.15,1.8,Calm,Calm,-,N/A,,Overcast,0,2013-03-12 08:15:00
2:35 AM,29.5,28.9,98,30.15,0.8,Calm,Calm,-,N/A,,Overcast,0,2013-03-12 08:35:00
2:55 AM,29.3,28.9,99,30.15,1.0,Calm,Calm,-,N/A,,Overcast,0,2013-03-12 08:55:00
3:15 AM,29.3,29.1,99,30.15,3.0,Calm,Calm,-,N/A,,Overcast,0,2013-03-12 09:15:00
3:35 AM,29.3,29.1,99,30.15,4.0,Calm,Calm,-,N/A,,Overcast,0,2013-03-12 09:35:00
3:55 AM,29.3,29.1,99,30.15,2.5,Calm,Calm,-,N/A,,Overcast,0,2013-03-12 09:55:00
4:15 AM,29.8,29.3,98,30.15,5.0,Calm,Calm,-,N/A,,Overcast,0,2013-03-12 10:15:00
4:35 AM,29.8,29.3,98,30.16,5.0,Calm,Calm,-,N/A,,Overcast,0,2013-03-12 10:35:00
4:55 AM,29.8,29.3,98,30.16,7.0,Calm,Calm,-,N/A,,Overcast,0,2013-03-12 10:55:00
5:15 AM,30.7,30.4,99,30.17,10.0,Calm,Calm,-,N/A,,Overcast,0,2013-03-12 11:15:00
5:35 AM,31.1,30.2,96,30.18,7.0,Calm,Calm,-,N/A,,Overcast,0,2013-03-12 11:35:00
5:55 AM,30.7,29.3,94,30.18,10.0,Calm,Calm,-,N/A,,Overcast,0,2013-03-12 11:55:00
6:15 AM,30.9,29.8,96,30.18,10.0,Calm,Calm,-,N/A,,Overcast,0,2013-03-12 12:15:00
6:35 AM,31.3,29.8,94,30.19,10.0,West,5.8,-,N/A,,Overcast,260,2013-03-12 12:35:00
6:55 AM,32.0,30.2,93,30.19,7.0,WSW,9.2,-,N/A,,Overcast,250,2013-03-12 12:55:00
7:15 AM,31.8,30.0,93,30.20,10.0,Calm,Calm,-,N/A,,Overcast,0,2013-03-12 13:15:00
7:35 AM,31.5,29.8,94,30.21,10.0,Calm,Calm,-,N/A,,Overcast,0,2013-03-12 13:35:00
7:55 AM,31.6,29.7,92,30.22,10.0,Calm,Calm,-,N/A,,Overcast,0,2013-03-12 13:55:00
8:15 AM,32.0,29.8,92,30.23,10.0,Calm,Calm,-,N/A,,Overcast,0,2013-03-12 14:15:00
8:35 AM,32.0,29.8,92,30.24,7.0,Calm,Calm,-,N/A,,Overcast,0,2013-03-12 14:35:00
8:55 AM,32.4,30.6,93,30.24,7.0,Calm,Calm,-,N/A,,Overcast,0,2013-03-12 14:55:00
9:15 AM,33.1,30.7,91,30.25,10.0,Calm,Calm,-,N/A,,Overcast,0,2013-03-12 15:15:00
9:35 AM,33.8,30.6,88,30.26,10.0,Calm,Calm,-,N/A,,Overcast,0,2013-03-12 15:35:00
9:55 AM,35.8,28.8,76,30.26,10.0,Calm,Calm,-,N/A,,Overcast,0,2013-03-12 15:55:00
10:15 AM,36.5,27.9,71,30.24,10.0,Calm,Calm,-,N/A,,Overcast,0,2013-03-12 16:15:00
10:35 AM,36.1,27.7,71,30.26,10.0,Calm,Calm,-,N/A,,Overcast,0,2013-03-12 16:35:00
10:55 AM,36.5,27.7,70,30.26,10.0,Calm,Calm,-,N/A,,Overcast,0,2013-03-12 16:55:00
11:15 AM,38.3,27.7,66,30.26,10.0,Calm,Calm,-,N/A,,Overcast,0,2013-03-12 17:15:00
11:35 AM,39.2,27.7,63,30.26,10.0,Calm,Calm,-,N/A,,Overcast,0,2013-03-12 17:35:00
11:55 AM,38.8,27.3,63,30.26,10.0,Calm,Calm,-,N/A,,Overcast,0,2013-03-12 17:55:00
12:15 PM,40.1,26.8,59,30.27,10.0,Calm,Calm,-,N/A,,Overcast,0,2013-03-12 18:15:00
12:35 PM,40.5,27.1,59,30.27,10.0,Calm,Calm,-,N/A,,Overcast,0,2013-03-12 18:35:00
12:55 PM,39.7,26.6,59,30.27,10.0,Calm,Calm,-,N/A,,Overcast,0,2013-03-12 18:55:00
1:15 PM,41.2,26.2,55,30.27,10.0,WSW,3.5,-,N/A,,Overcast,250,2013-03-12 19:15:00
1:35 PM,40.6,25.0,54,30.27,10.0,WSW,6.9,-,N/A,,Overcast,250,2013-03-12 19:35:00
1:55 PM,41.0,24.1,51,30.27,10.0,WSW,9.2,-,N/A,,Overcast,240,2013-03-12 19:55:00
2:15 PM,42.3,23.2,47,30.26,10.0,WSW,5.8,-,N/A,,Overcast,240,2013-03-12 20:15:00
2:35 PM,43.0,23.7,47,30.25,10.0,Calm,Calm,-,N/A,,Mostly Cloudy,0,2013-03-12 20:35:00
2:55 PM,46.9,22.6,38,30.25,10.0,Calm,Calm,-,N/A,,Mostly Cloudy,0,2013-03-12 20:55:00
3:15 PM,46.6,21.9,38,30.25,10.0,SW,4.6,-,N/A,,Mostly Cloudy,230,2013-03-12 21:15:00
3:35 PM,42.1,23.7,48,30.25,10.0,Calm,Calm,-,N/A,,Overcast,0,2013-03-12 21:35:00
3:55 PM,46.4,23.0,40,30.25,10.0,West,4.6,-,N/A,,Overcast,270,2013-03-12 21:55:00
4:15 PM,43.3,21.7,42,30.25,10.0,West,4.6,-,N/A,,Overcast,270,2013-03-12 22:15:00
4:35 PM,41.9,22.3,46,30.26,10.0,West,6.9,-,N/A,,Overcast,270,2013-03-12 22:35:00
4:55 PM,41.2,22.6,48,30.25,10.0,West,3.5,-,N/A,,Overcast,280,2013-03-12 22:55:00
5:15 PM,40.8,23.2,50,30.25,10.0,NW,3.5,-,N/A,,Overcast,310,2013-03-12 23:15:00
5:35 PM,40.5,23.0,50,30.26,10.0,WNW,8.1,-,N/A,,Overcast,290,2013-03-12 23:35:00
5:55 PM,39.4,23.9,54,30.26,10.0,Calm,Calm,-,N/A,,Overcast,0,2013-03-12 23:55:00
6:15 PM,39.2,23.5,53,30.26,10.0,WNW,4.6,-,N/A,,Overcast,290,2013-03-13 00:15:00
6:35 PM,39.0,23.7,54,30.26,10.0,Calm,Calm,-,N/A,,Mostly Cloudy,0,2013-03-13 00:35:00
6:55 PM,37.6,24.8,60,30.25,10.0,ESE,4.6,-,N/A,,Scattered Clouds,120,2013-03-13 00:55:00
7:15 PM,37.9,23.7,57,30.26,10.0,Calm,Calm,-,N/A,,Clear,0,2013-03-13 01:15:00
7:35 PM,37.4,23.7,58,30.26,10.0,Calm,Calm,-,N/A,,Clear,0,2013-03-13 01:35:00
7:55 PM,37.4,23.5,57,30.27,10.0,Calm,Calm,-,N/A,,Clear,0,2013-03-13 01:55:00
8:15 PM,35.1,23.9,64,30.27,10.0,Calm,Calm,-,N/A,,Clear,0,2013-03-13 02:15:00
8:35 PM,36.1,23.4,60,30.27,10.0,Calm,Calm,-,N/A,,Scattered Clouds,0,2013-03-13 02:35:00
8:55 PM,34.3,24.4,67,30.28,10.0,Calm,Calm,-,N/A,,Mostly Cloudy,0,2013-03-13 02:55:00
9:15 PM,34.7,24.6,67,30.29,10.0,Calm,Calm,-,N/A,,Overcast,0,2013-03-13 03:15:00
9:35 PM,34.3,24.6,68,30.28,10.0,Calm,Calm,-,N/A,,Overcast,0,2013-03-13 03:35:00
9:55 PM,34.0,24.8,69,30.27,10.0,Calm,Calm,-,N/A,,Overcast,0,2013-03-13 03:55:00
10:15 PM,34.2,24.3,67,30.29,10.0,Calm,Calm,-,N/A,,Overcast,0,2013-03-13 04:15:00
10:35 PM,33.1,24.8,72,30.29,10.0,ESE,3.5,-,N/A,,Overcast,110,2013-03-13 04:35:00
10:55 PM,32.0,25.2,76,30.30,10.0,Calm,Calm,-,N/A,,Scattered Clouds,0,2013-03-13 04:55:00
11:55 PM,31.6,24.4,75,30.31,10.0,Calm,Calm,-,N/A,,Scattered Clouds,0,2013-03-13 05:55:00